[[{"header":{"parameterUnit":"m.s-1","parameterCategory":1,"la1":30.2991,"la2":30.254,"lo1":-89.0895,"lo2":-89.0444,"dy":0.0017,"dx":0.0017,"nx":28,"ny":28,"refTime":"2025-12-26T09:00:00:Z","depth":0,"parameterNumber":2,"parameterNumberName":"U-component_of_WINDS"},"data":[0,0,0,0,0,0,0,0,0,0,0,0,0,0,0,0,0,0,0,0,0,0,0,0,0,0,0,0,0,0,0,0,0,0,0,0,0,0,0,0,0,0,0,0,0,0,0,0,0,0,0,0,0,0,0,0,0,0,0.0569,0.0569,0,0.0632,0.0633,0.0634,0.0646,0.0646,0.0645,0.0645,0.0714,0.0716,0.0719,0,0,0,0,0,0,0,0,0,0,0,0,0,0.046,0.0462,0.0569,0.0569,0.057,0.0632,0.0633,0.0634,0.0646,0.0646,0.0645,0.0645,0.0713,0.0716,0.0719,0,0,0,0,0,0,0,0,0,0,0,0,0,0.0514,0.0463,0.0569,0.0584,0.0586,0.0632,0.0633,0.0634,0.0647,0.0646,0.0645,0.0644,0.0712,0.0716,0.0719,0.0756,0,0,0.073,0.0731,0,0,0,0,0,0,0,0,0.0511,0.0518,0.0581,0.0583,0.0585,0.0631,0.062,0.0675,0.0647,0.0624,0.0645,0.0644,0.0687,0.0693,0.0706,0.0759,0.0762,0.073,0.0732,0.0734,0.0735,0,0,0,0,0,0,0,0.0507,0.0515,0.0594,0.0582,0.0584,0.0588,0.0595,0.0631,0.0659,0.0626,0.0627,0.0634,0.0688,0.0703,0.0708,0.0763,0.073,0.0733,0.0735,0.0737,0.0848,0.0849,0,0,0,0,0,0,0.05,0.0512,0.0592,0.0596,0.0545,0.0591,0.0599,0.0617,0.0659,0.0664,0.0634,0.0634,0.0697,0.0704,0.0711,0.0756,0.0734,0.0737,0.0739,0.0847,0.0849,0.0849,0,0,0,0,0,0,0.0498,0.0507,0.0589,0.0554,0.0565,0.0594,0.0614,0.0619,0.0633,0.0665,0.0671,0.0644,0.0697,0.0706,0.0744,0.0759,0.0739,0.0742,0.0846,0.0848,0.0849,0.0848,0,0,0,0,0,0,0.0495,0.0506,0.052,0.0555,0.0567,0.0621,0.0615,0.062,0.0639,0.0639,0.0676,0.0681,0.0697,0.0739,0.0747,0.0763,0.0744,0.0845,0.0847,0.0849,0.0846,0.0849,0.085,0,0,0,0,0,0.0491,0.0518,0.0521,0.0531,0.0585,0.0622,0.0629,0.0646,0.064,0.0654,0.0675,0.068,0.0755,0.0743,0.0753,0.0769,0.0844,0.0847,0.0848,0.0846,0.0848,0.085,0,0,0,0,0,0,0.0487,0.0523,0.0527,0.0566,0.059,0.0624,0.0643,0.0648,0.0676,0.0676,0.0696,0.0704,0.0741,0.0759,0.0744,0.0807,0.08,0.0804,0.0794,0.0797,0.0799,0.0794,0.0747,0,0,0,0,0,0.049,0.0517,0.0547,0.0579,0.0591,0.0614,0.0631,0.0642,0.0669,0.068,0.0703,0.073,0.076,0.0779,0.0808,0.0848,0.0857,0.0865,0.0867,0.0868,0.0872,0.0894,0.0898,0.0856,0.0856,0.0856,0,0,0.0498,0.0521,0.0537,0.0578,0.0599,0.0626,0.0623,0.0653,0.0674,0.0685,0.0722,0.074,0.0771,0.081,0.0829,0.0827,0.0885,0.0871,0.0872,0.0875,0.0897,0.0901,0.0904,0.0857,0.0857,0.0857,0,0,0.0527,0.0547,0.0575,0.0595,0.0625,0.064,0.0647,0.0679,0.0691,0.0728,0.0736,0.0762,0.0813,0.0834,0.0852,0.0887,0.0893,0.0895,0.0907,0.0928,0.0932,0.0935,0.0948,0.0952,0.0899,0.0899,0.0899,0,0.0534,0.0574,0.0589,0.0618,0.0636,0.0645,0.0674,0.0693,0.0731,0.0744,0.074,0.0803,0.0825,0.0869,0.0877,0.0891,0.09,0.0892,0.093,0.0933,0.0936,0.0949,0.0953,0.0899,0.0899,0.0899,0.0899,0,0.0581,0.0609,0.0628,0.0663,0.0684,0.0712,0.0732,0.0751,0.0758,0.0774,0.0812,0.0838,0.0872,0.0883,0.0892,0.0928,0.0926,0.0925,0.0919,0.094,0.0952,0.0957,0.0899,0.0899,0.0899,0.0899,0,0,0.0611,0.0652,0.0659,0.0675,0.0708,0.073,0.0759,0.0791,0.0807,0.0832,0.0858,0.0899,0.0899,0.0919,0.093,0.0948,0.0974,0.0946,0.0947,0.0951,0.1016,0.1017,0.1022,0.0978,0.0979,0.0979,0.1014,0,0.0644,0.0695,0.0708,0.0752,0.0778,0.0786,0.0811,0.0834,0.0849,0.0874,0.0891,0.092,0.0917,0.0929,0.0947,0.0967,0.0988,0.0965,0.1003,0.1004,0.0996,0.1029,0.103,0.1062,0.1019,0.1019,0.102,0,0.069,0.0715,0.0761,0.0789,0.0801,0.0823,0.0853,0.0876,0.0902,0.0912,0.0933,0.0942,0.0973,0.0963,0.1006,0.099,0.1006,0.1018,0.102,0.1025,0.1014,0.1036,0.1072,0.1077,0.1027,0.1027,0.1026,0,0.0709,0.0753,0.0786,0.08,0.0833,0.0849,0.0864,0.0889,0.0907,0.0933,0.0945,0.0974,0.0991,0.1014,0.1031,0.1022,0.1073,0.1065,0.1083,0.1082,0.1095,0.1094,0.1135,0.1103,0.1103,0.1102,0.1102,0,0.0745,0.0773,0.0795,0.0815,0.0847,0.0861,0.0892,0.0907,0.093,0.0954,0.0962,0.0985,0.1005,0.103,0.1044,0.1077,0.1085,0.1094,0.1098,0.1094,0.1093,0.1106,0.1105,0.1104,0.1103,0.1103,0.1103,0,0.0772,0.0787,0.0824,0.0852,0.0859,0.0881,0.0906,0.0926,0.094,0.097,0.0978,0.1001,0.1031,0.105,0.1089,0.1097,0.1135,0.1137,0.1126,0.1128,0.1145,0.1143,0.1197,0.1205,0.1166,0.1166,0.1167,0,0.0795,0.0816,0.0845,0.0861,0.0876,0.0902,0.0919,0.0934,0.0952,0.0983,0.0999,0.103,0.1055,0.1103,0.1124,0.1153,0.1157,0.1173,0.1161,0.1157,0.1158,0.1157,0.1159,0.1176,0.1176,0.1176,0.1177,0,0.0834,0.084,0.0864,0.0891,0.0911,0.0934,0.0956,0.0969,0.0987,0.1007,0.1037,0.1056,0.1095,0.1125,0.1156,0.1172,0.1178,0.118,0.1186,0.1183,0.1176,0.1181,0.1132,0.1179,0.1179,0.1179,0.1178,0.1178,0.086,0.0879,0.0902,0.0929,0.0947,0.0967,0.0987,0.1002,0.1027,0.1059,0.1066,0.1098,0.1122,0.1164,0.1181,0.1206,0.1204,0.1213,0.1215,0.1217,0.1218,0.117,0.1212,0.1212,0.1212,0.1212,0.1212,0,0.0901,0.0915,0.0939,0.0969,0.099,0.0991,0.1015,0.1033,0.106,0.1082,0.1106,0.114,0.1169,0.1191,0.122,0.1237,0.124,0.1244,0.1244,0.1248,0.1218,0.121,0.1241,0.1241,0.1241,0.1241,0.1241,0.1241,0.0924,0.0956,0.0965,0.1006,0.102,0.105,0.1064,0.1083,0.11,0.1137,0.1161,0.1174,0.1196,0.1227,0.1254,0.1259,0.127,0.1274,0.1281,0.1253,0.125,0.1247,0.124,0.1276,0.1276,0.1308,0.1309,0.1309]},{"header":{"parameterUnit":"m.s-1","parameterCategory":1,"la1":30.2991,"la2":30.254,"lo1":-89.0895,"lo2":-89.0444,"dy":0.0017,"dx":0.0017,"nx":28,"ny":28,"refTime":"2025-12-26T09:00:00:Z","depth":0,"parameterNumber":3,"parameterNumberName":"V-component_of_WINDS"},"data":[0,0,0,0,0,0,0,0,0,0,0,0,0,0,0,0,0,0,0,0,0,0,0,0,0,0,0,0,0,0,0,0,0,0,0,0,0,0,0,0,0,0,0,0,0,0,0,0,0,0,0,0,0,0,0,0,0,0,2.3578,2.3578,0,2.3617,2.3618,2.3618,2.36,2.3599,2.3598,2.3597,2.3635,2.3637,2.3639,0,0,0,0,0,0,0,0,0,0,0,0,0,2.3483,2.3485,2.3578,2.3578,2.3579,2.3617,2.3618,2.3618,2.36,2.3598,2.3597,2.3596,2.3634,2.3637,2.3639,0,0,0,0,0,0,0,0,0,0,0,0,0,2.3523,2.3485,2.3577,2.3574,2.3574,2.3617,2.3618,2.3618,2.36,2.3598,2.3597,2.3596,2.3634,2.3636,2.3639,2.3687,0,0,2.3648,2.365,0,0,0,0,0,0,0,0,2.3521,2.3527,2.3574,2.3574,2.3574,2.3602,2.3598,2.3641,2.36,2.359,2.3597,2.3595,2.3625,2.3629,2.3639,2.3689,2.3691,2.3649,2.365,2.3652,2.3652,0,0,0,0,0,0,0,2.3518,2.3525,2.3593,2.3575,2.3575,2.357,2.3574,2.3606,2.3615,2.3591,2.359,2.3595,2.3625,2.3636,2.364,2.3691,2.3648,2.3651,2.3653,2.3654,2.3782,2.3784,0,0,0,0,0,0,2.3516,2.3523,2.3592,2.3594,2.3544,2.3572,2.3577,2.3595,2.3615,2.3617,2.3596,2.3594,2.3632,2.3637,2.3641,2.3699,2.3652,2.3654,2.3656,2.3781,2.3783,2.3784,0,0,0,0,0,0,2.3514,2.3522,2.359,2.3558,2.3567,2.3576,2.3596,2.3596,2.3608,2.3619,2.362,2.3606,2.3631,2.3637,2.3676,2.37,2.3656,2.3658,2.3779,2.3781,2.3784,2.3815,0,0,0,0,0,0,2.3511,2.3522,2.3541,2.3559,2.3568,2.3626,2.3597,2.3598,2.3613,2.3611,2.3629,2.3631,2.363,2.3672,2.3679,2.3703,2.3661,2.3777,2.378,2.3783,2.3812,2.3818,2.3824,0,0,0,0,0,2.3508,2.3548,2.3542,2.355,2.3593,2.3627,2.3632,2.3632,2.3615,2.3634,2.3641,2.363,2.3696,2.3676,2.3684,2.371,2.3775,2.3779,2.3783,2.3809,2.3817,2.3824,0,0,0,0,0,0,2.3531,2.355,2.3544,2.3591,2.3607,2.3624,2.3648,2.364,2.3662,2.3658,2.3656,2.366,2.3701,2.3709,2.3686,2.3757,2.3733,2.3738,2.3751,2.3758,2.3764,2.3762,2.3663,0,0,0,0,0,2.3542,2.3569,2.3584,2.3623,2.3632,2.3639,2.3653,2.3652,2.3669,2.3676,2.3685,2.3702,2.3726,2.3742,2.3765,2.3813,2.3816,2.3834,2.384,2.3845,2.385,2.3875,2.3883,2.3797,2.3797,2.3797,0,0,2.3564,2.3578,2.3595,2.3629,2.3641,2.3669,2.3645,2.3675,2.3695,2.368,2.3718,2.3725,2.3743,2.3787,2.3806,2.3795,2.3874,2.3849,2.3853,2.3856,2.388,2.3888,2.3895,2.3799,2.3799,2.3798,0,0,2.3619,2.3632,2.3667,2.368,2.37,2.3704,2.3712,2.373,2.3735,2.3773,2.3762,2.3785,2.3827,2.3841,2.3853,2.3912,2.3903,2.3919,2.3951,2.3976,2.3982,2.3989,2.401,2.4018,2.3924,2.3924,2.3924,0,2.3644,2.3686,2.3685,2.3717,2.3732,2.372,2.3754,2.3767,2.3793,2.3803,2.379,2.3843,2.3854,2.39,2.3915,2.3925,2.3934,2.3918,2.3982,2.3988,2.3993,2.4014,2.4022,2.3926,2.3926,2.3926,2.3926,0,2.3716,2.3745,2.3771,2.3797,2.3815,2.3848,2.3851,2.3869,2.3865,2.387,2.3908,2.3921,2.3947,2.3957,2.3954,2.4003,2.3995,2.3982,2.3958,2.4004,2.4023,2.4031,2.3929,2.3928,2.3928,2.3927,0,0,2.3788,2.3813,2.3823,2.3835,2.3855,2.3878,2.3909,2.3935,2.395,2.3968,2.3995,2.403,2.4018,2.4032,2.4029,2.4051,2.4097,2.4035,2.4035,2.4047,2.4153,2.4164,2.4173,2.4091,2.4092,2.4094,2.4151,0,2.3845,2.3902,2.3902,2.3954,2.3981,2.3969,2.3997,2.4012,2.4017,2.404,2.4045,2.4071,2.4052,2.406,2.4081,2.4088,2.4119,2.4083,2.4115,2.4117,2.4112,2.4183,2.4194,2.4249,2.4159,2.416,2.4161,0,2.3919,2.3941,2.3996,2.4013,2.4024,2.4049,2.4072,2.4094,2.4111,2.4113,2.4128,2.4123,2.4154,2.4128,2.4171,2.4147,2.416,2.4165,2.4167,2.4171,2.4142,2.4189,2.4266,2.4274,2.4173,2.4172,2.4171,0,2.3967,2.4009,2.4048,2.4058,2.4079,2.4097,2.4106,2.4121,2.4136,2.4156,2.4166,2.4189,2.4201,2.4219,2.4219,2.42,2.4263,2.4237,2.4265,2.4266,2.428,2.4279,2.4361,2.4287,2.4287,2.4286,2.4286,0,2.4032,2.4066,2.407,2.4094,2.4132,2.413,2.4167,2.4175,2.4188,2.4213,2.4203,2.4226,2.4225,2.4247,2.4248,2.4283,2.4289,2.4291,2.4291,2.4293,2.4293,2.4302,2.4299,2.4289,2.4288,2.4288,2.4287,0,2.4092,2.4096,2.4137,2.4153,2.4158,2.4185,2.4198,2.422,2.4224,2.4255,2.4262,2.4268,2.4295,2.4296,2.4327,2.4327,2.4371,2.4366,2.4365,2.4365,2.4393,2.4391,2.4484,2.4497,2.4414,2.4415,2.4415,0,2.4133,2.416,2.4178,2.4194,2.4205,2.4231,2.4246,2.4245,2.4262,2.4283,2.4302,2.4328,2.4349,2.4391,2.4398,2.4421,2.4417,2.4448,2.442,2.4421,2.4418,2.4417,2.442,2.4454,2.4455,2.4455,2.4456,0,2.4207,2.4207,2.4231,2.4255,2.4274,2.4293,2.431,2.4324,2.4325,2.4343,2.4371,2.4387,2.4418,2.4444,2.4466,2.4474,2.4466,2.4464,2.4472,2.4475,2.4474,2.4476,2.4381,2.4463,2.4462,2.4462,2.4461,2.4461,2.4259,2.4282,2.4299,2.4325,2.4338,2.4355,2.4377,2.4383,2.4406,2.4432,2.443,2.446,2.4475,2.4504,2.4514,2.4538,2.4527,2.4538,2.4541,2.4544,2.4548,2.447,2.4541,2.4541,2.4541,2.4541,2.4541,0,2.4333,2.4343,2.4367,2.4392,2.4413,2.4403,2.4421,2.4439,2.4466,2.4481,2.4502,2.4533,2.4557,2.4566,2.4589,2.4606,2.4603,2.4613,2.4612,2.4614,2.4556,2.4547,2.4615,2.4615,2.4615,2.4615,2.4615,2.4615,2.4374,2.4412,2.4414,2.4459,2.4468,2.4499,2.451,2.4525,2.4537,2.4573,2.4593,2.4599,2.4611,2.4635,2.4657,2.4659,2.4668,2.468,2.468,2.4626,2.4618,2.4611,2.4603,2.4682,2.4682,2.4737,2.4737,2.4738]}]]